Wind_Speed
10 5 7 10 8 11 11 8 8 6 6 7 6 5 6 5 5 4 4 6 7 7 8 9 10 9 11 10 10 18 19 14 14 12 19 25 23 25 26 27 25 23 20 18 16 16 16 27 36 30 23 25 28 30 32 34 34 33 32 30 31 33 33 32 30 31 31 31 30 29 27 25 24 22 20 18 17 17 15 14 13 11 10 9 7 5
10 9 10 10 7 9 10 8 7 8 10 7 5 6 6 5 6 5 6 7 5 6 8 7 8 11 12 10 12 16 14 13 12 11 17 22 22 26 29 30 26 24 23 22 19 17 17 26 33 29 28 31 30 32 34 35 34 33 31 30 34 36 36 35 33 33 32 33 32 30 28 25 23 21 20 19 19 17 15 14 13 11 10 9 7 5
8 11 9 8 7 6 7 8 8 7 9 8 5 4 4 4 4 5 8 9 6 4 5 6 6 10 12 12 14 13 12 16 19 19 23 26 26 27 31 32 29 29 28 24 21 20 20 25 30 30 30 29 28 30 32 33 33 30 29 32 36 37 37 36 34 33 32 32 31 28 26 22 21 20 20 20 19 17 15 14 13 13 11 9 7 7
7 8 8 8 7 8 7 8 9 7 6 7 6 5 4 4 3 4 7 8 9 6 5 6 5 7 9 10 12 14 16 18 21 23 25 32 35 34 37 37 36 36 32 28 26 27 28 30 34 34 32 31 31 31 30 32 34 31 31 35 37 37 35 34 33 32 31 31 29 26 23 20 19 20 21 21 19 18 16 14 14 14 12 9 8 9
6 5 11 10 9 11 10 8 11 9 7 7 8 6 5 6 6 7 5 3 4 5 6 6 4 6 6 8 10 12 13 13 15 14 16 25 31 33 36 36 38 38 34 33 33 34 37 38 39 37 35 37 37 34 32 35 35 31 31 35 37 36 34 33 32 31 31 31 28 26 24 21 21 22 22 22 21 18 16 15 14 14 12 10 9 8
6 8 16 14 11 13 12 10 12 10 7 8 9 9 8 8 8 9 6 2 3 5 6 6 5 7 5 8 12 9 6 6 9 12 15 23 27 30 33 32 36 37 34 34 35 38 40 41 40 37 38 43 41 36 35 35 34 32 32 35 36 35 33 32 31 30 31 31 27 25 25 25 25 25 24 23 20 18 17 15 14 14 13 11 9 7
5 10 15 14 14 14 12 11 12 11 8 7 7 9 10 9 7 9 6 2 2 5 5 5 7 6 5 7 12 9 6 5 8 9 13 24 29 31 32 34 38 39 37 37 37 39 41 42 42 39 42 46 41 37 36 34 33 32 32 34 34 33 32 32 30 29 31 31 28 25 24 25 27 26 24 22 19 18 17 16 16 15 13 11 9 7
8 12 13 14 15 13 13 12 11 11 8 6 6 8 9 10 10 10 6 4 4 3 6 5 6 6 5 6 8 7 7 6 8 8 9 18 27 32 32 35 41 41 41 43 42 43 42 42 42 40 44 47 41 38 38 35 34 33 33 34 33 32 32 32 31 29 30 31 30 26 24 25 25 24 23 22 20 19 18 18 17 15 14 12 10 8
9 12 13 15 14 11 12 11 10 11 7 4 7 8 8 8 10 9 5 4 2 2 7 6 3 5 5 4 3 6 9 7 8 10 10 13 24 30 31 34 37 40 43 45 44 43 41 41 40 39 43 47 42 39 38 36 36 35 34 35 34 33 33 33 32 30 29 31 31 27 25 25 24 23 23 22 22 20 20 19 18 16 16 14 11 9
9 15 15 14 12 10 10 10 11 12 8 5 8 8 7 7 7 5 5 4 1 3 8 7 2 2 5 4 2 5 7 9 9 10 9 13 21 27 29 31 32 35 41 42 42 41 41 40 39 39 43 44 40 36 36 36 36 36 37 37 36 34 33 33 33 31 30 31 31 29 27 26 25 24 23 23 23 21 21 21 20 18 17 14 12 10
8 16 16 10 11 11 10 11 13 13 9 5 6 6 7 8 4 1 3 3 2 6 8 9 6 4 4 5 4 5 6 11 10 8 8 10 16 22 27 32 33 36 40 41 41 41 41 41 40 43 45 42 38 36 36 37 37 37 37 36 35 34 33 33 32 31 30 30 30 30 28 27 25 24 24 24 23 23 22 22 21 19 18 15 11 10
8 12 12 10 13 13 10 10 12 13 10 6 6 5 4 6 4 2 0 3 5 6 6 8 6 5 4 5 5 5 6 15 15 13 14 13 17 24 31 36 38 41 42 42 44 45 45 45 45 46 44 41 40 39 39 39 39 38 36 35 34 34 34 34 32 31 30 31 31 30 28 26 24 23 24 23 23 24 24 22 21 20 18 14 11 10
8 7 8 10 13 15 12 8 8 10 10 8 6 5 5 4 3 4 3 3 5 6 6 7 3 3 5 6 8 6 7 15 15 16 21 19 20 27 33 38 40 41 43 44 46 47 48 49 49 48 45 43 43 43 42 41 40 38 36 34 35 36 36 34 32 31 31 31 30 29 27 25 23 22 21 21 23 25 23 21 21 21 18 13 11 11
6 6 8 10 10 14 13 8 7 8 10 10 7 6 6 5 4 6 3 2 4 4 7 6 3 2 4 4 9 8 8 16 19 24 32 31 31 33 34 36 38 40 43 46 47 48 49 49 48 48 47 46 46 45 44 43 42 40 37 35 36 37 36 34 32 31 31 30 29 27 26 24 22 21 21 22 23 23 21 20 21 20 16 12 11 12
7 6 8 9 7 11 14 10 9 7 8 10 6 5 6 5 5 4 3 4 4 3 5 3 2 3 2 4 8 6 9 18 25 28 30 29 31 32 31 32 37 40 43 45 45 47 48 48 48 49 49 48 47 46 45 43 42 41 39 37 38 37 35 33 32 31 30 30 28 27 26 24 21 21 22 22 22 21 20 21 21 18 15 12 11 12
8 6 5 7 7 9 12 11 10 9 7 8 5 5 6 6 5 2 3 6 5 2 3 2 2 4 4 5 4 3 8 14 17 17 17 19 22 25 27 31 35 39 40 41 43 45 46 47 48 49 47 47 46 45 45 43 41 42 40 38 37 35 34 33 32 30 29 29 28 27 25 23 22 22 23 22 22 22 21 21 20 18 15 13 13 13
7 5 3 8 10 10 13 12 11 10 6 5 5 5 5 6 6 3 3 2 5 4 3 2 2 4 3 4 5 5 8 8 10 12 14 18 24 25 26 29 33 36 38 40 42 45 46 46 47 46 43 44 45 44 43 42 41 42 40 38 36 34 34 33 32 30 29 28 28 27 25 24 24 24 24 23 23 23 22 21 20 19 17 15 14 15
6 4 5 7 10 12 14 14 13 12 9 6 7 7 5 5 3 2 2 1 3 3 4 1 3 3 1 2 5 7 9 8 10 12 11 15 21 23 25 29 32 34 37 38 40 43 45 44 45 43 41 42 44 43 42 41 42 41 39 37 36 35 34 33 32 30 29 28 28 27 26 25 25 25 25 24 24 24 22 21 20 20 19 17 16 16
1 2 6 6 10 9 10 12 10 9 8 7 7 6 5 5 3 1 3 3 3 3 3 3 2 3 3 4 1 5 8 8 9 11 11 13 17 21 24 28 30 31 33 36 39 42 42 42 41 41 41 41 40 39 40 40 41 40 38 36 35 34 34 33 31 30 29 28 27 26 26 26 26 26 25 25 24 23 22 21 21 21 20 18 17 17
2 1 3 6 9 7 4 7 9 7 4 3 6 7 4 3 4 3 3 3 3 3 3 2 2 2 5 6 4 7 10 10 10 11 13 15 19 24 28 31 32 33 35 39 42 43 43 41 40 40 41 41 38 37 39 39 39 38 35 34 33 33 33 31 30 29 29 29 28 27 27 27 27 26 25 25 24 23 22 22 21 21 19 18 17 18
2 1 3 4 5 7 4 5 8 8 4 4 6 7 4 3 2 3 2 2 4 4 3 2 2 5 5 5 4 8 12 13 15 15 13 15 22 29 33 37 38 38 39 43 45 45 43 41 38 38 39 39 37 37 37 36 36 35 34 34 34 33 32 30 30 30 30 29 29 29 28 27 27 26 26 24 23 22 21 20 20 19 18 17 18 17
3 2 2 2 3 7 5 3 7 9 7 6 5 5 5 4 4 4 1 2 2 4 4 5 3 7 5 3 4 6 11 13 16 17 14 17 25 30 32 36 39 40 43 45 46 45 43 39 36 36 36 36 36 35 35 34 33 33 33 34 34 33 31 31 31 32 31 30 29 29 28 27 26 26 24 22 20 19 19 19 19 18 17 17 17 15
3 1 1 2 3 6 4 3 8 10 7 5 5 4 4 4 5 6 3 3 1 1 1 3 2 6 6 3 4 5 10 14 18 19 16 20 29 31 31 32 34 35 37 40 43 43 41 37 35 35 35 35 35 34 33 33 32 32 33 34 33 31 31 32 33 33 31 30 30 29 29 28 26 25 23 21 20 19 19 18 17 17 17 17 16 15
3 1 3 3 2 2 3 3 6 7 6 4 3 3 5 4 4 5 4 4 3 2 1 3 2 6 5 5 5 6 10 13 17 21 21 23 29 31 32 33 33 33 32 32 35 37 37 35 33 33 34 34 33 32 32 32 33 32 32 32 31 31 32 34 34 33 31 30 30 30 29 28 26 25 23 21 20 19 18 17 17 17 16 16 16 16
4 2 2 1 2 2 1 1 1 3 4 4 2 2 5 5 5 4 3 3 1 4 4 5 3 6 5 6 5 3 9 9 11 18 22 23 25 27 29 30 32 32 31 30 30 31 33 33 33 33 33 33 32 32 32 32 33 33 33 32 30 32 35 35 34 33 32 31 31 30 28 27 25 24 22 20 19 18 18 17 18 17 15 14 15 15
4 2 3 4 4 5 6 5 4 5 3 2 2 3 5 6 6 5 4 4 2 3 4 5 4 5 5 6 5 2 7 9 7 9 13 15 18 22 23 24 26 27 28 28 28 30 31 31 31 31 31 31 32 32 33 33 32 31 31 30 32 35 36 36 35 34 33 32 31 29 28 26 24 23 21 20 19 18 19 19 17 15 13 14 15 14
2 2 2 5 5 6 5 5 4 5 5 2 2 3 3 7 8 6 4 4 5 2 1 3 5 3 2 4 3 2 2 6 6 6 9 12 16 20 21 22 23 23 24 25 26 28 31 31 30 30 30 31 31 32 33 32 30 29 30 32 35 37 37 36 35 34 33 31 30 29 27 25 23 22 20 20 19 19 19 17 15 14 14 14 14 12
2 2 2 4 6 6 2 3 3 5 7 6 5 4 1 3 7 7 4 5 6 4 2 6 3 4 4 6 5 4 5 5 4 5 9 14 18 21 22 23 23 24 26 27 28 29 30 30 28 28 29 29 29 29 29 28 28 30 33 35 38 38 37 37 36 34 33 31 29 28 26 24 24 22 21 20 20 19 18 15 14 15 15 13 12 12
4 2 4 4 5 1 4 6 5 3 6 6 6 5 3 5 7 7 6 6 7 6 6 6 6 6 6 7 7 7 7 7 7 9 14 18 20 22 23 25 26 28 29 30 30 30 29 28 26 26 28 29 28 29 29 28 30 33 36 38 39 38 38 37 36 34 32 30 28 27 25 24 23 22 21 20 19 17 16 15 15 15 14 12 13 15
4 1 4 3 4 5 6 5 5 4 4 5 5 3 3 6 7 6 5 5 7 7 4 4 6 7 6 6 7 5 7 11 14 18 19 20 21 22 24 25 26 28 29 28 29 30 31 31 30 31 34 34 34 35 34 34 36 37 39 40 39 39 38 37 36 34 31 29 27 26 24 24 23 21 20 18 16 16 16 16 16 15 13 13 15 15
3 2 3 3 5 5 6 5 7 6 4 5 5 5 5 5 5 4 4 4 4 5 4 5 2 4 3 2 3 5 12 15 15 17 19 21 23 24 23 24 24 26 28 29 31 32 33 35 35 36 38 39 40 39 38 38 39 40 41 41 41 40 39 37 35 33 30 28 26 24 24 23 21 19 18 16 16 16 16 17 16 14 14 16 16 15
3 0 3 4 5 4 6 5 7 8 7 8 8 8 7 5 2 3 4 4 4 6 7 7 2 4 2 2 3 6 11 12 10 12 16 20 24 27 25 24 24 26 28 30 33 35 35 37 37 37 38 39 40 40 39 40 42 43 44 43 43 42 39 37 35 32 30 28 25 24 23 21 20 18 18 17 17 17 17 17 15 14 16 17 17 16
2 3 2 4 4 3 6 4 6 7 7 5 3 3 2 3 2 2 3 4 0 6 8 6 5 5 4 5 5 5 6 7 9 15 19 20 22 25 27 28 29 30 32 33 34 36 37 38 38 38 38 39 40 42 43 43 45 46 46 46 45 43 40 37 34 30 29 27 25 24 23 21 19 19 18 18 18 20 20 17 15 15 17 18 18 17
2 5 3 2 4 2 6 6 6 5 3 2 4 3 3 3 4 8 5 6 5 2 3 5 5 5 6 7 9 10 11 13 18 22 25 26 26 24 26 30 32 33 34 32 31 34 37 38 39 38 38 39 41 43 45 46 46 47 47 46 45 42 39 35 32 29 27 24 23 24 23 22 21 19 19 19 21 22 20 17 16 18 19 19 19 18
4 5 3 2 3 1 3 6 5 2 4 6 5 5 4 3 5 9 6 6 9 8 5 2 9 9 7 6 8 12 13 15 19 19 20 24 26 26 27 30 32 33 32 30 28 30 34 38 39 38 38 40 42 43 44 46 46 46 46 46 45 41 37 34 30 26 24 23 24 25 23 22 20 19 22 24 23 22 19 16 17 20 20 20 19 18
5 4 2 2 3 1 2 5 3 4 5 4 5 6 4 3 4 6 7 7 8 9 7 2 7 8 7 6 7 12 14 14 14 12 14 17 19 20 23 27 30 31 30 29 28 29 33 36 37 38 39 41 42 42 43 45 46 46 46 44 42 39 35 32 27 24 24 25 26 24 23 22 21 22 26 25 23 21 19 18 19 21 21 21 20 19
6 4 2 2 2 2 3 2 1 1 4 5 3 4 2 2 2 1 3 4 5 6 7 4 1 4 8 9 12 18 20 15 10 6 9 16 17 17 18 21 25 27 27 26 24 25 30 33 34 37 39 40 40 40 43 45 46 47 45 41 38 35 33 30 28 28 28 26 25 24 23 22 24 26 27 25 23 21 19 19 21 21 21 21 20 18
6 5 4 3 2 2 4 2 2 3 2 3 5 6 3 3 5 4 4 3 6 6 9 6 1 3 5 9 16 21 19 11 4 1 8 17 20 19 18 19 20 22 25 26 23 22 27 31 33 36 37 38 39 41 44 46 46 46 45 42 38 35 32 30 30 29 28 25 24 24 22 22 25 27 26 24 22 20 20 21 22 20 19 19 18 18
8 5 5 5 3 2 4 3 1 1 1 5 6 8 10 11 6 3 4 4 5 7 14 9 1 2 1 4 11 14 12 6 3 5 10 18 21 20 20 20 20 20 22 23 23 23 26 31 34 36 36 38 42 45 46 46 45 44 43 41 38 35 32 31 30 28 25 24 24 23 20 21 25 27 26 24 22 20 21 22 21 19 17 16 16 17
6 5 4 4 3 2 4 2 1 2 1 4 5 8 17 18 7 5 2 4 5 9 16 10 1 2 0 2 4 5 5 4 7 11 15 20 21 20 19 19 19 19 18 19 22 24 27 31 35 38 39 41 45 46 45 45 45 42 38 37 36 34 32 29 26 23 22 23 23 22 21 24 27 27 26 24 22 21 21 20 18 17 15 14 15 16
4 4 3 3 3 3 3 3 1 2 1 4 7 12 19 15 5 4 4 6 7 11 15 9 4 3 3 5 3 1 1 3 10 19 21 22 22 21 19 17 17 17 18 21 24 26 28 31 36 40 42 43 45 45 44 44 43 40 37 36 35 32 28 25 23 22 23 24 23 23 24 27 27 26 24 23 22 21 20 18 16 15 14 14 15 17
2 3 2 2 2 2 2 3 1 2 2 7 11 13 13 6 2 3 4 4 7 10 10 10 8 5 5 6 4 4 6 9 15 22 24 23 24 22 21 20 20 20 21 24 26 29 31 34 38 42 43 43 44 44 44 43 42 40 38 34 30 27 24 22 22 24 25 25 25 26 27 28 27 25 24 24 23 22 21 18 16 15 15 15 16 18
1 1 2 1 0 1 3 3 2 2 3 11 11 8 8 4 3 4 3 4 5 7 8 10 9 7 7 8 8 10 15 19 21 24 24 24 24 23 22 23 23 23 24 25 27 30 32 36 40 42 43 42 42 42 41 39 37 34 32 28 25 22 22 23 24 25 26 27 28 29 29 28 27 26 26 25 23 22 21 18 16 15 14 14 15 18
1 1 1 1 1 2 3 0 0 4 5 9 6 3 1 4 3 3 4 5 6 7 7 7 8 7 6 9 13 16 20 22 22 24 26 26 26 26 25 24 23 25 26 27 29 31 33 36 40 41 40 39 39 37 35 33 31 28 26 24 23 23 24 25 26 28 29 30 31 30 29 28 28 27 26 24 23 22 20 18 16 14 11 9 12 17
1 1 2 2 0 2 3 3 3 3 3 6 8 6 6 9 8 6 6 7 8 7 5 4 6 5 4 8 14 18 20 21 23 25 27 29 30 28 27 26 26 27 28 30 31 32 34 37 40 41 38 35 32 29 26 26 26 25 23 24 24 26 27 28 29 31 32 32 31 30 30 29 27 26 25 24 23 21 20 19 16 13 10 9 13 17
2 1 2 3 1 2 3 2 1 2 5 7 8 8 13 17 14 10 10 10 9 8 5 3 5 5 4 5 9 14 17 20 23 24 26 29 30 29 29 29 29 29 31 32 33 33 34 36 37 37 34 30 26 24 22 22 22 22 23 25 26 28 29 30 32 34 33 31 30 31 30 28 27 27 25 23 22 21 19 18 15 12 11 13 16 17
3 2 3 3 2 2 2 2 2 5 8 11 11 12 16 19 18 16 15 12 10 9 7 4 3 4 5 4 6 11 17 21 23 25 27 29 30 30 30 31 31 30 31 32 32 31 31 32 31 30 29 27 24 23 22 21 19 20 22 25 28 29 29 31 33 34 32 30 31 32 30 29 29 29 26 23 22 21 19 16 13 13 14 17 19 19
3 4 2 2 2 2 2 3 0 7 12 16 17 16 16 17 17 17 17 14 11 10 9 6 3 2 3 4 8 12 19 22 23 25 28 29 29 30 31 32 32 31 30 30 31 30 31 30 28 25 25 24 23 21 19 19 19 19 21 25 28 29 30 32 33 32 31 32 33 32 30 30 30 29 27 25 24 22 18 16 14 15 17 18 18 19
2 3 1 2 3 4 2 1 1 5 11 16 17 16 14 14 15 15 16 15 14 13 11 8 6 4 2 5 10 15 20 23 23 24 26 28 30 32 33 33 32 32 31 30 30 29 29 28 24 22 22 22 21 20 18 18 19 20 23 27 29 30 31 33 33 32 32 33 32 31 31 31 29 28 27 26 24 21 19 17 17 17 17 16 14 14
2 2 1 3 4 2 1 2 2 3 2 7 12 14 13 12 12 13 15 16 16 15 12 8 7 6 3 4 11 16 19 21 21 20 23 27 30 33 35 34 32 32 31 30 30 29 28 26 25 24 24 24 23 21 18 18 21 23 25 28 29 30 32 33 33 33 32 31 30 31 32 31 29 28 26 24 23 22 22 21 19 17 15 14 13 11
4 1 1 4 4 2 3 4 8 8 4 5 10 12 11 11 11 12 14 15 14 12 11 9 6 6 5 1 7 13 16 19 19 20 22 27 30 32 35 34 33 33 33 30 29 28 28 26 26 26 25 25 25 22 19 20 23 25 26 29 30 30 31 33 34 33 31 31 32 33 32 31 30 28 26 25 24 24 23 22 20 18 16 15 14 12
Wind_Direction
183 201 216 209 207 199 201 198 191 197 203 202 193 206 225 219 229 222 226 249 214 218 243 227 235 246 241 240 232 231 228 226 229 193 180 189 178 167 157 146 155 165 161 160 167 168 160 168 178 184 174 166 175 178 175 175 174 174 173 172 173 179 189 194 191 188 190 194 193 192 193 196 200 204 208 206 198 192 188 190 195 198 198 183 173 191
185 215 220 206 199 195 197 193 184 202 223 226 204 215 238 231 234 225 226 249 208 199 249 237 226 240 238 237 238 231 224 229 221 173 178 182 165 161 152 146 154 154 148 147 149 158 166 170 177 181 169 164 175 179 178 177 173 175 178 179 181 184 192 198 199 197 197 200 199 196 196 199 202 205 205 199 192 190 187 190 196 198 193 176 169 186
203 222 211 191 186 189 194 197 196 208 221 230 227 215 237 239 247 247 236 245 226 195 246 234 218 242 240 232 234 227 218 225 218 198 183 168 158 156 149 150 154 145 145 148 147 155 164 170 176 178 171 169 177 179 181 180 177 182 185 186 188 190 194 198 201 203 203 203 202 199 197 196 197 197 196 195 194 189 187 192 196 199 192 173 165 174
210 218 191 179 180 188 198 197 199 218 228 224 222 206 225 231 207 236 242 244 240 234 242 226 221 252 246 235 239 230 220 223 219 206 183 169 168 164 160 165 162 151 151 153 153 159 162 164 171 176 176 175 175 174 180 185 185 189 189 191 193 194 196 198 200 204 204 199 196 195 194 193 194 194 192 193 193 188 189 195 197 197 188 171 167 174
218 169 166 181 187 191 203 201 193 209 227 227 223 201 209 223 210 228 249 279 277 271 256 244 267 280 245 227 241 232 222 221 204 177 153 163 169 163 163 168 164 162 163 161 159 160 159 163 169 175 178 176 173 174 180 187 191 193 194 195 196 196 198 200 201 201 198 193 190 191 194 196 197 197 194 190 188 188 191 193 194 190 177 167 171 177
231 166 167 184 195 195 202 209 200 198 210 231 226 202 208 222 221 240 257 1 347 299 260 227 236 278 261 222 229 220 204 205 172 137 136 154 155 156 161 163 163 167 170 168 165 162 161 163 167 172 177 177 176 178 184 188 192 194 195 196 196 198 199 200 200 195 193 192 189 190 194 196 197 194 193 188 185 188 190 188 187 181 169 169 181 185
221 183 174 183 192 195 204 216 209 194 197 228 210 184 210 227 231 245 242 183 228 260 262 212 206 257 283 230 224 208 178 167 141 128 146 153 153 161 166 163 163 167 169 170 169 167 166 166 168 173 180 181 178 179 182 186 190 194 195 196 196 198 198 197 194 190 190 191 191 192 195 197 196 193 191 186 184 187 187 184 182 174 168 177 193 197
191 189 184 185 187 194 205 213 206 190 194 217 183 174 204 220 235 243 228 208 225 267 290 261 210 230 256 238 222 181 148 139 127 133 156 158 161 168 169 165 164 167 170 170 168 168 168 169 171 175 181 182 179 177 178 181 187 191 193 193 194 194 192 191 188 187 189 191 193 196 198 199 198 194 191 185 184 186 185 184 177 170 174 184 194 203
174 190 189 185 190 200 205 206 196 189 200 202 184 199 208 207 229 237 223 233 262 321 290 280 220 217 255 273 221 148 142 154 156 157 165 168 170 173 172 169 166 168 171 170 168 169 171 172 175 179 181 182 180 177 177 180 184 185 186 187 188 188 187 186 187 188 188 192 196 199 201 200 196 193 191 186 185 186 184 182 177 173 181 188 195 206
175 200 199 186 195 206 198 199 196 194 205 192 183 208 228 229 234 220 204 216 241 257 256 262 232 198 273 284 165 146 162 172 167 165 172 177 177 177 175 172 169 169 170 171 171 172 174 176 179 181 179 179 179 177 179 183 184 182 182 184 185 185 186 186 188 189 189 192 198 202 202 199 192 189 189 187 185 184 182 180 177 178 185 193 201 213
197 198 206 203 202 202 189 192 199 200 199 184 185 198 222 243 257 213 188 162 195 246 250 251 232 178 265 277 188 187 188 166 154 157 175 182 179 177 176 175 174 172 173 174 175 175 176 177 180 181 179 178 178 178 182 184 183 182 183 184 185 186 188 188 189 190 190 193 197 200 199 196 192 188 187 186 184 182 181 180 180 182 187 195 207 220
236 198 206 214 203 193 187 194 198 198 197 196 197 171 184 240 279 319 238 142 204 246 255 245 224 165 215 265 235 233 183 159 156 162 177 187 184 180 178 178 178 178 177 177 176 175 176 178 180 180 179 180 180 181 185 184 183 183 184 184 186 189 190 190 190 191 191 193 195 196 196 193 192 192 190 188 184 182 182 181 183 187 189 197 216 228
243 220 213 213 205 193 187 194 192 191 196 206 199 160 160 197 225 227 212 189 213 244 252 226 178 160 221 241 241 234 171 164 166 170 179 184 182 182 181 178 178 178 176 176 176 176 177 179 180 180 180 182 183 184 187 186 185 186 185 186 189 192 192 190 190 192 193 194 193 193 193 191 192 195 193 190 185 183 182 183 189 192 192 204 225 232
230 254 229 210 206 197 189 184 186 190 192 201 197 167 173 177 186 213 215 215 216 239 257 229 166 258 270 255 237 220 181 177 177 181 184 182 180 182 183 179 176 176 176 178 178 178 180 182 181 180 182 185 185 186 187 187 188 189 188 188 191 194 192 190 191 193 194 194 192 191 191 189 191 194 194 192 189 185 183 189 197 197 198 214 232 236
201 237 227 208 196 189 193 190 180 178 184 201 189 140 173 182 172 199 187 189 210 237 266 250 171 202 207 240 231 197 180 186 186 187 183 178 178 176 176 176 176 177 179 180 180 181 183 184 183 182 184 188 188 188 188 188 191 192 191 191 194 194 192 190 192 193 192 192 190 188 187 187 190 193 193 193 190 186 187 195 201 201 203 219 234 239
204 234 223 203 203 187 193 192 172 163 183 203 168 136 191 188 155 183 186 174 172 182 252 224 194 209 204 254 271 124 166 184 179 175 162 161 169 167 169 176 178 180 181 181 182 184 186 186 184 183 186 190 190 189 190 191 194 194 193 193 195 195 193 192 194 192 190 190 188 187 187 187 191 193 192 189 187 187 191 197 203 204 207 219 233 240
191 255 255 188 208 208 191 183 175 174 177 181 178 189 199 163 146 188 228 180 126 155 243 219 232 294 322 305 330 75 130 144 139 152 157 161 166 168 174 179 182 183 183 183 184 185 187 188 186 185 187 190 190 190 192 195 196 195 195 195 195 196 195 194 195 192 189 188 187 186 188 190 193 194 191 189 187 189 193 197 203 206 210 219 233 242
155 241 271 191 203 220 197 180 183 181 165 166 193 198 171 148 139 129 175 237 107 163 264 258 187 251 323 279 330 58 107 134 144 156 161 160 165 173 181 183 185 185 183 183 185 186 189 189 187 186 187 190 192 193 195 197 196 195 196 196 194 196 195 195 195 192 190 188 186 187 188 190 193 194 192 191 190 191 193 198 203 209 215 223 236 246
133 225 269 209 195 216 196 176 187 190 175 174 181 170 155 172 202 102 146 184 136 161 270 303 214 200 196 229 273 97 136 155 152 155 159 163 172 181 185 185 185 184 182 183 185 188 191 190 188 187 188 191 194 197 197 195 194 195 195 195 196 196 196 195 194 191 190 188 188 188 186 187 191 193 193 193 194 195 197 202 208 213 221 228 240 251
299 207 248 225 190 177 162 172 190 196 173 134 155 172 164 143 167 168 155 161 149 169 217 283 318 260 226 226 193 164 171 161 153 167 174 176 180 182 184 186 185 183 184 185 188 191 192 190 188 188 190 193 194 196 195 194 194 194 193 194 196 197 196 194 191 189 187 187 189 188 185 187 191 192 193 194 196 199 202 208 213 219 227 236 249 255
288 234 238 253 186 162 180 204 184 172 155 133 162 186 176 106 133 165 161 148 135 147 178 180 270 272 246 228 209 181 174 168 169 176 183 183 182 184 187 187 186 185 187 189 190 192 192 191 189 189 191 193 193 193 193 194 194 192 191 193 196 196 194 190 187 185 185 186 189 188 187 189 190 190 193 195 199 204 209 215 220 227 237 246 254 254
252 246 233 263 180 175 205 210 158 157 159 156 172 191 167 139 128 137 208 279 117 136 167 162 212 264 257 232 246 196 175 181 180 175 178 184 183 186 191 190 187 188 191 192 191 192 191 190 189 188 188 189 189 189 190 192 192 191 191 193 196 196 192 187 185 184 185 186 188 188 189 189 190 192 196 200 206 211 217 223 228 238 247 250 248 241
198 176 243 255 210 196 205 146 147 152 142 143 178 183 147 133 129 134 180 253 193 159 167 125 182 260 265 275 279 222 189 189 186 177 174 180 183 186 190 191 191 192 195 194 191 190 189 188 188 187 186 185 185 186 187 188 189 189 191 194 195 193 187 184 184 185 186 186 186 187 188 188 190 195 199 205 212 216 222 228 234 243 247 242 231 223
181 205 239 264 291 295 346 57 129 138 119 134 200 158 122 141 151 145 162 178 188 226 152 103 227 261 285 317 305 228 196 188 186 181 173 175 182 185 186 188 191 193 196 196 192 188 186 185 186 185 185 184 184 185 186 187 187 188 191 194 192 186 182 183 185 186 185 185 184 186 188 190 193 196 201 208 215 221 226 231 238 243 241 231 219 214
191 216 169 137 49 55 47 44 144 164 142 153 191 134 122 133 135 145 150 123 193 232 157 133 228 256 284 323 335 196 179 176 185 184 177 175 179 181 183 185 188 191 192 191 191 188 184 184 185 185 185 183 182 183 184 184 187 190 193 192 187 181 181 183 185 185 184 184 184 186 189 192 195 199 205 212 219 226 231 236 241 239 233 224 215 211
178 212 120 132 150 151 169 194 202 195 171 145 145 137 142 148 151 164 151 120 212 242 136 140 210 256 297 332 4 92 171 170 169 169 167 169 171 173 175 178 183 186 184 184 186 187 186 186 186 185 184 183 181 181 181 181 184 189 193 190 184 181 181 183 184 184 184 185 187 188 191 194 198 203 209 215 222 231 237 240 239 229 220 218 214 210
114 239 133 129 155 170 189 217 203 148 136 161 153 128 166 187 174 149 122 151 189 182 105 210 202 193 294 316 7 45 158 162 151 132 133 146 157 161 164 170 175 176 176 177 182 185 185 184 184 183 181 179 176 175 179 183 186 189 189 184 181 181 182 183 183 183 185 187 190 192 193 197 203 208 212 219 227 236 239 237 230 220 213 210 206 196
93 255 218 136 152 179 207 313 321 124 139 170 161 122 109 177 161 149 165 200 172 132 272 261 202 150 212 234 200 154 136 149 154 127 128 140 148 152 156 162 166 169 172 177 181 184 183 181 179 177 175 175 171 171 177 183 187 189 186 180 179 182 184 184 183 185 186 188 192 195 196 201 207 212 217 224 233 239 236 226 213 209 206 196 182 169
128 205 228 156 133 123 34 12 356 111 143 149 147 153 135 120 139 158 193 204 154 148 224 224 179 189 221 224 205 178 164 166 149 128 131 137 141 145 149 154 161 168 174 177 177 177 176 175 174 173 174 176 176 178 181 183 184 184 180 179 181 183 185 185 186 187 189 191 195 197 200 206 212 217 224 232 238 235 223 205 193 195 195 178 162 158
121 205 247 140 92 27 26 31 27 62 127 126 122 164 163 139 151 164 193 198 150 148 196 176 172 217 235 223 217 184 139 136 130 128 133 137 140 145 149 153 159 165 167 169 170 171 173 175 176 175 175 179 184 186 184 182 182 181 179 181 183 185 187 188 189 191 192 194 198 200 205 212 217 223 230 234 231 217 199 185 184 190 181 162 156 159
96 217 277 83 77 8 356 12 29 47 110 115 71 23 36 89 126 157 192 205 139 124 105 85 123 248 262 216 200 117 115 122 126 132 138 142 147 150 151 153 156 158 162 168 173 176 178 178 178 177 177 182 187 187 184 183 183 183 183 184 185 186 189 191 193 194 194 196 202 207 211 216 221 226 229 225 214 196 180 176 184 185 168 158 158 160
66 112 324 58 73 341 326 359 21 44 76 71 38 11 15 47 107 182 205 206 165 139 112 97 138 240 234 135 112 110 120 124 129 137 142 148 154 154 155 157 158 159 165 174 179 180 181 181 181 181 181 182 184 184 185 186 184 182 184 185 185 187 189 191 193 193 194 198 205 211 217 221 222 223 222 215 200 178 169 175 183 177 164 159 160 158
93 90 39 70 83 302 303 355 27 50 67 48 345 316 324 348 34 63 352 332 99 135 135 150 198 217 182 150 135 126 124 129 147 155 154 156 158 157 162 167 169 171 174 178 180 181 184 186 186 184 183 183 186 188 189 187 184 181 183 184 184 186 188 189 190 193 194 197 202 212 222 227 224 221 215 200 180 167 169 178 179 170 163 159 158 157
67 91 89 88 106 259 304 357 43 66 91 240 261 253 251 294 59 83 56 348 356 45 166 178 160 153 166 170 163 160 163 167 170 169 167 165 163 160 166 173 177 179 181 180 178 179 183 186 185 185 187 189 189 189 187 186 184 182 182 184 184 185 188 189 191 194 195 198 207 218 224 223 220 214 197 177 166 165 170 177 174 165 161 158 157 159
65 78 73 58 101 169 328 29 65 131 222 241 280 306 272 220 115 101 79 15 11 3 332 159 141 152 180 195 176 162 162 162 161 161 162 165 167 167 171 179 183 184 185 183 180 179 180 182 182 183 187 187 182 181 181 182 183 183 184 185 184 184 188 190 189 191 196 206 216 219 215 210 206 192 173 165 166 168 171 177 173 163 160 160 159 161
105 92 82 71 90 122 45 62 129 215 259 287 315 329 349 51 71 67 41 8 8 4 335 247 163 160 163 172 164 145 140 136 129 137 157 167 177 182 184 189 192 192 191 188 186 184 181 182 185 184 184 181 176 177 181 183 185 186 185 185 183 181 186 189 190 197 206 212 213 207 200 198 188 172 164 165 169 170 173 178 174 166 164 164 163 164
115 101 84 62 65 113 101 86 208 276 337 343 334 320 354 46 318 60 66 335 334 3 350 328 177 155 151 152 144 132 126 119 99 103 166 177 189 200 202 205 204 201 197 191 188 187 182 182 185 183 181 177 174 178 183 184 185 186 184 183 181 180 184 190 196 204 207 205 200 192 188 185 173 164 164 167 171 173 175 177 175 172 171 170 168 168
89 100 117 97 56 88 98 65 19 29 352 278 276 290 288 253 247 186 113 336 322 355 352 342 181 182 169 153 146 134 122 114 99 140 180 180 187 195 198 203 207 207 204 198 192 185 179 178 180 179 181 180 178 182 185 182 181 182 181 181 180 181 185 193 199 201 199 195 190 184 180 174 167 164 165 169 174 179 178 176 177 176 174 173 172 170
63 72 94 89 59 65 96 100 105 126 224 255 266 294 316 317 297 155 103 325 303 345 345 338 190 203 277 154 149 138 124 125 190 207 185 178 182 189 193 195 199 203 205 204 203 195 184 179 178 179 185 186 183 182 182 180 180 179 178 178 179 183 188 193 196 195 193 190 184 179 174 169 167 167 168 172 179 182 177 173 175 174 172 175 175 170
47 36 45 64 51 49 95 108 226 184 209 277 274 299 316 322 337 111 131 275 277 332 340 340 112 135 14 121 116 116 129 171 194 185 175 171 174 183 194 198 199 198 197 198 200 196 189 184 181 181 185 187 185 182 181 182 183 181 179 181 183 186 190 193 193 192 188 183 176 172 171 169 169 170 172 175 179 179 175 173 174 174 175 179 181 175
42 37 49 96 68 39 92 110 317 263 267 305 303 312 319 326 13 115 200 244 280 320 341 4 58 86 127 149 143 110 114 193 177 166 162 165 168 173 182 189 190 192 193 194 192 186 182 182 181 180 181 183 185 184 183 185 185 182 183 187 187 186 187 188 187 184 178 173 171 171 170 169 170 171 172 174 175 174 176 179 182 182 183 184 182 176
42 16 12 79 73 25 96 104 19 264 336 336 322 329 345 4 142 207 235 260 299 320 355 34 56 74 108 127 125 114 119 136 153 154 155 161 165 166 170 175 176 180 185 186 183 178 174 173 174 176 179 180 182 183 183 184 184 182 183 184 183 182 182 182 180 177 173 171 171 170 169 169 171 171 171 173 175 176 178 183 186 185 179 177 174 171
115 47 12 8 8 44 70 57 51 202 319 341 336 345 17 41 221 259 312 349 348 359 26 44 56 72 99 106 103 121 136 141 147 152 154 158 161 161 166 172 174 178 180 178 174 173 172 170 172 176 179 178 179 181 182 182 182 180 179 179 179 179 179 177 176 174 173 173 171 169 169 171 173 173 174 175 178 182 181 179 178 174 169 170 172 170
76 115 133 242 310 75 101 59 205 209 285 344 18 120 61 5 353 1 15 13 22 35 41 51 63 72 99 115 119 133 143 147 153 157 157 157 158 161 166 171 173 175 177 176 172 172 172 171 171 175 177 176 176 178 179 182 182 179 176 177 178 178 176 175 174 173 173 172 170 169 171 173 174 176 178 179 183 185 181 174 171 168 166 170 175 175
327 237 130 125 87 110 146 205 224 228 299 24 70 92 52 42 51 63 63 51 43 44 43 64 80 84 102 124 132 142 150 157 163 164 161 159 161 164 169 173 175 175 175 174 172 172 172 171 171 173 173 173 173 173 175 182 185 181 178 178 178 176 175 173 171 170 171 171 171 172 173 173 175 178 180 183 185 185 179 173 173 176 177 176 177 176
319 309 88 101 137 103 80 68 58 38 22 41 61 52 47 57 67 73 69 58 48 47 49 72 99 111 127 147 153 155 160 165 165 163 161 159 160 163 166 168 170 172 174 173 171 170 170 168 168 169 168 168 172 175 177 183 187 185 180 177 176 175 173 171 169 168 169 169 171 173 173 173 174 177 179 182 185 184 180 178 183 190 188 179 175 174
349 11 64 91 109 108 59 339 360 45 35 37 50 56 59 65 69 68 66 59 50 49 53 65 96 110 125 165 190 180 174 173 169 163 160 159 161 165 167 166 167 170 174 174 173 172 170 168 167 167 166 167 171 175 174 175 179 182 180 176 175 174 172 170 169 169 169 170 172 174 175 174 174 175 178 181 182 182 182 187 197 201 188 177 172 171
332 5 31 77 69 92 165 226 173 72 57 50 55 59 61 66 70 68 66 62 58 55 58 66 68 73 119 174 207 194 181 179 174 165 162 165 168 170 168 168 168 169 170 171 172 173 173 173 172 171 169 168 168 170 171 170 172 177 179 176 174 172 171 171 171 170 170 172 174 174 176 177 177 177 177 177 178 181 185 190 194 188 177 171 170 170
313 350 17 117 79 67 103 180 115 68 51 48 55 57 54 60 68 68 62 58 56 54 56 64 63 52 100 181 200 193 182 179 178 174 172 174 174 170 167 166 167 167 166 167 170 173 175 175 178 183 181 175 169 168 169 170 173 176 176 173 173 172 171 171 172 172 172 173 175 176 178 179 179 179 177 175 178 183 184 180 175 169 163 160 161 167
15 4 22 95 95 99 221 228 142 116 49 39 55 56 48 48 58 62 56 49 47 45 42 43 46 38 40 178 192 191 185 182 183 186 184 179 175 170 166 164 165 167 168 169 172 176 179 179 183 186 182 174 171 171 171 173 174 174 173 172 175 176 174 172 174 175 176 177 179 180 180 180 181 182 181 181 184 183 177 170 166 165 164 160 157 160
36 33 129 131 141 182 193 145 120 118 117 76 66 59 45 40 47 54 50 42 37 37 32 29 29 25 17 25 193 195 194 189 188 191 188 181 177 172 166 166 169 170 172 174 176 179 182 183 183 181 175 172 173 176 176 175 175 174 174 175 177 179 178 177 177 178 178 180 181 180 181 182 183 185 187 188 186 180 173 169 170 173 177 175 170 168
Height
1446 1450 1446 1442 1440 1441 1442 1444 1446 1446 1446 1448 1450 1451 1451 1451 1450 1445 1442 1439 1437 1441 1441 1441 1443 1443 1441 1441 1439 1439 1440 1441 1441 1442 1445 1448 1452 1455 1457 1458 1461 1463 1466 1468 1468 1470 1472 1472 1476 1480 1485 1492 1497 1499 1498 1498 1499 1500 1503 1504 1504 1508 1513 1517 1520 1522 1523 1523 1523 1524 1525 1527 1529 1531 1532 1534 1535 1536 1537 1538 1539 1540 1540 1540 1540 1541
1444 1444 1438 1436 1439 1439 1441 1443 1444 1445 1445 1446 1449 1450 1451 1451 1448 1442 1440 1438 1437 1441 1441 1439 1443 1442 1439 1439 1437 1437 1439 1439 1438 1441 1443 1446 1451 1453 1454 1457 1461 1462 1465 1467 1467 1469 1472 1473 1475 1478 1481 1486 1493 1498 1499 1498 1498 1499 1502 1504 1504 1506 1510 1514 1517 1521 1522 1522 1522 1522 1523 1525 1528 1529 1531 1533 1534 1535 1537 1538 1538 1539 1539 1539 1539 1539
1441 1436 1433 1436 1439 1438 1441 1442 1443 1445 1445 1447 1448 1450 1452 1450 1446 1442 1438 1436 1436 1440 1441 1440 1443 1442 1437 1436 1435 1433 1435 1434 1434 1436 1439 1443 1448 1451 1453 1455 1459 1462 1464 1465 1466 1468 1470 1471 1473 1476 1479 1483 1488 1494 1499 1499 1498 1498 1500 1502 1503 1504 1507 1510 1514 1518 1520 1521 1522 1522 1523 1525 1527 1529 1530 1532 1534 1535 1536 1537 1537 1538 1538 1538 1539 1539
1437 1432 1433 1436 1437 1438 1440 1440 1443 1446 1445 1446 1447 1451 1453 1448 1448 1447 1440 1437 1436 1437 1438 1438 1441 1440 1435 1435 1432 1430 1430 1430 1431 1433 1435 1438 1441 1445 1448 1451 1454 1457 1460 1462 1464 1466 1467 1469 1470 1472 1476 1479 1481 1486 1494 1498 1498 1497 1498 1500 1501 1503 1505 1508 1512 1516 1518 1520 1521 1522 1523 1525 1527 1528 1529 1531 1533 1534 1535 1536 1536 1537 1538 1538 1538 1539
1430 1428 1430 1434 1436 1437 1440 1440 1442 1445 1446 1445 1444 1448 1449 1445 1446 1445 1440 1438 1437 1436 1435 1438 1446 1442 1434 1435 1432 1427 1427 1429 1430 1434 1437 1439 1441 1444 1447 1449 1452 1452 1455 1458 1460 1462 1464 1466 1468 1470 1472 1474 1476 1479 1485 1491 1493 1494 1495 1497 1499 1501 1503 1506 1509 1512 1515 1517 1519 1520 1522 1524 1526 1527 1528 1529 1531 1532 1533 1534 1535 1536 1537 1537 1538 1539
1428 1426 1427 1432 1434 1435 1438 1438 1437 1440 1445 1445 1441 1441 1443 1442 1443 1442 1440 1442 1445 1445 1436 1438 1456 1449 1432 1432 1430 1424 1427 1429 1430 1434 1436 1439 1442 1446 1448 1449 1451 1452 1454 1456 1457 1459 1462 1464 1467 1469 1471 1472 1473 1475 1479 1484 1488 1491 1493 1495 1497 1499 1501 1503 1507 1509 1512 1514 1516 1518 1520 1522 1523 1524 1526 1527 1529 1530 1532 1533 1534 1536 1536 1537 1538 1538
1426 1424 1424 1428 1432 1434 1436 1435 1433 1435 1444 1445 1437 1435 1439 1440 1442 1442 1442 1445 1449 1448 1435 1434 1451 1450 1433 1429 1426 1422 1426 1428 1432 1435 1436 1437 1440 1443 1445 1446 1448 1450 1453 1455 1456 1457 1460 1462 1465 1466 1469 1470 1470 1471 1476 1480 1485 1488 1490 1492 1494 1496 1498 1501 1504 1507 1509 1512 1514 1517 1519 1521 1522 1523 1525 1526 1528 1529 1531 1532 1534 1534 1535 1536 1537 1537
1419 1423 1424 1425 1429 1432 1432 1431 1429 1431 1440 1441 1432 1432 1437 1438 1440 1441 1442 1446 1445 1442 1437 1431 1439 1445 1436 1426 1421 1421 1428 1432 1435 1438 1438 1437 1439 1440 1442 1444 1445 1447 1449 1451 1453 1455 1457 1460 1461 1463 1466 1469 1468 1469 1473 1476 1480 1483 1487 1490 1492 1494 1496 1499 1502 1504 1507 1510 1513 1516 1518 1521 1522 1523 1524 1525 1526 1528 1529 1532 1533 1533 1534 1536 1536 1536
1415 1420 1421 1422 1426 1428 1425 1425 1425 1429 1435 1433 1428 1430 1433 1434 1437 1437 1441 1445 1442 1444 1446 1435 1434 1444 1437 1423 1421 1422 1428 1437 1438 1438 1439 1437 1438 1439 1441 1443 1445 1446 1447 1447 1449 1452 1455 1457 1459 1460 1463 1467 1468 1469 1471 1472 1474 1478 1482 1486 1489 1492 1494 1497 1500 1502 1505 1508 1511 1515 1518 1520 1522 1523 1523 1524 1525 1526 1528 1531 1532 1533 1534 1535 1535 1535
1414 1415 1416 1418 1422 1421 1420 1422 1423 1427 1430 1427 1426 1429 1430 1432 1433 1435 1439 1443 1443 1449 1450 1438 1434 1444 1439 1423 1424 1428 1429 1435 1437 1437 1437 1436 1436 1437 1439 1442 1445 1447 1448 1448 1448 1450 1452 1454 1457 1459 1462 1465 1468 1469 1470 1472 1474 1477 1479 1482 1486 1489 1492 1495 1498 1501 1504 1507 1510 1514 1517 1519 1520 1521 1522 1523 1524 1525 1527 1529 1530 1532 1533 1534 1533 1533
1410 1412 1414 1414 1414 1414 1416 1420 1421 1423 1425 1425 1426 1429 1432 1432 1432 1435 1437 1439 1448 1452 1446 1436 1431 1439 1443 1427 1421 1425 1423 1424 1431 1436 1437 1436 1436 1437 1439 1441 1443 1445 1446 1446 1448 1449 1451 1454 1456 1458 1461 1463 1466 1468 1469 1470 1473 1476 1478 1480 1483 1487 1490 1493 1497 1500 1504 1507 1509 1513 1515 1518 1519 1520 1521 1521 1522 1524 1526 1528 1530 1531 1532 1532 1532 1533
1410 1411 1411 1407 1408 1411 1415 1418 1418 1420 1423 1424 1426 1430 1436 1438 1437 1441 1441 1442 1454 1453 1439 1430 1426 1434 1443 1429 1414 1414 1413 1414 1421 1428 1431 1431 1432 1434 1435 1437 1439 1441 1442 1444 1447 1448 1450 1453 1455 1458 1460 1462 1464 1466 1467 1469 1471 1474 1476 1478 1482 1485 1489 1492 1496 1500 1503 1506 1509 1512 1515 1517 1518 1519 1520 1521 1522 1524 1525 1527 1529 1529 1530 1531 1531 1531
1412 1409 1406 1405 1407 1408 1412 1417 1419 1419 1421 1424 1426 1431 1441 1446 1447 1450 1450 1448 1452 1448 1432 1424 1425 1432 1435 1422 1409 1409 1412 1413 1414 1416 1419 1422 1426 1429 1431 1433 1436 1438 1439 1442 1445 1447 1448 1449 1452 1455 1458 1460 1462 1464 1467 1469 1472 1474 1475 1477 1480 1483 1487 1492 1496 1499 1502 1505 1508 1511 1514 1516 1518 1519 1520 1521 1522 1523 1524 1526 1528 1528 1528 1529 1529 1530
1416 1410 1405 1405 1405 1402 1406 1413 1418 1418 1418 1422 1424 1430 1440 1446 1451 1456 1454 1450 1447 1441 1429 1421 1425 1432 1429 1416 1406 1406 1410 1411 1410 1409 1410 1413 1418 1423 1427 1431 1434 1436 1437 1440 1443 1445 1446 1447 1449 1453 1455 1457 1460 1463 1466 1469 1472 1474 1475 1477 1479 1482 1487 1491 1495 1498 1502 1505 1508 1511 1513 1515 1517 1518 1519 1520 1521 1523 1524 1526 1527 1527 1527 1528 1528 1529
1417 1414 1404 1401 1401 1398 1400 1404 1409 1412 1415 1418 1417 1424 1432 1434 1440 1447 1447 1445 1443 1437 1428 1424 1429 1432 1425 1412 1403 1403 1407 1407 1407 1407 1409 1413 1417 1421 1426 1430 1432 1433 1435 1438 1441 1444 1445 1446 1449 1452 1454 1456 1459 1462 1465 1467 1471 1473 1474 1476 1479 1482 1487 1491 1494 1498 1501 1504 1508 1510 1513 1514 1516 1518 1519 1520 1521 1522 1523 1524 1525 1526 1526 1526 1527 1528
1412 1410 1396 1394 1396 1394 1397 1399 1400 1407 1415 1416 1414 1420 1425 1422 1422 1431 1436 1435 1433 1433 1430 1428 1427 1422 1413 1403 1400 1403 1405 1405 1408 1411 1415 1419 1422 1425 1428 1429 1430 1431 1434 1436 1439 1443 1445 1447 1449 1451 1453 1455 1458 1461 1463 1466 1470 1472 1474 1476 1479 1483 1487 1491 1494 1497 1501 1504 1507 1509 1512 1514 1515 1517 1518 1519 1520 1521 1522 1523 1524 1525 1525 1525 1526 1527
1410 1407 1392 1391 1394 1390 1393 1396 1395 1403 1411 1413 1416 1417 1415 1412 1412 1422 1433 1431 1428 1434 1434 1429 1424 1417 1411 1406 1402 1403 1404 1407 1411 1414 1417 1419 1422 1425 1426 1427 1429 1430 1432 1435 1437 1441 1444 1445 1448 1450 1452 1454 1457 1460 1462 1466 1469 1471 1473 1476 1479 1483 1487 1490 1494 1497 1500 1503 1506 1508 1511 1513 1515 1517 1518 1518 1519 1520 1521 1523 1524 1524 1525 1525 1525 1526
1403 1404 1392 1389 1394 1390 1388 1392 1393 1395 1399 1407 1414 1411 1407 1410 1412 1417 1429 1433 1435 1439 1434 1428 1426 1422 1420 1416 1409 1407 1409 1412 1413 1413 1417 1421 1422 1425 1425 1426 1428 1429 1431 1435 1438 1441 1443 1444 1446 1449 1451 1454 1456 1459 1462 1466 1469 1470 1473 1475 1478 1482 1486 1490 1493 1496 1500 1502 1505 1508 1510 1512 1514 1516 1517 1517 1518 1519 1520 1522 1523 1524 1524 1524 1524 1525
1398 1402 1394 1387 1390 1389 1385 1391 1397 1394 1392 1397 1402 1402 1405 1415 1420 1421 1428 1434 1440 1444 1436 1428 1428 1425 1421 1415 1408 1411 1414 1413 1415 1416 1418 1421 1422 1423 1425 1426 1428 1430 1432 1435 1438 1441 1442 1443 1445 1447 1450 1453 1457 1460 1463 1465 1468 1469 1472 1475 1478 1482 1486 1489 1493 1496 1499 1502 1505 1507 1509 1512 1513 1515 1516 1516 1517 1519 1520 1521 1522 1523 1523 1523 1523 1524
1398 1402 1397 1385 1383 1386 1386 1392 1398 1397 1393 1393 1396 1399 1401 1409 1415 1417 1423 1427 1432 1440 1438 1432 1429 1423 1416 1406 1402 1409 1413 1412 1416 1418 1416 1417 1418 1419 1422 1423 1425 1427 1430 1433 1436 1438 1439 1441 1443 1445 1449 1453 1456 1460 1462 1465 1467 1469 1472 1475 1478 1482 1486 1490 1493 1496 1499 1502 1504 1507 1509 1510 1512 1514 1515 1516 1517 1518 1519 1521 1522 1522 1522 1522 1522 1522
1398 1400 1398 1387 1381 1387 1390 1389 1392 1395 1396 1396 1399 1402 1403 1406 1409 1411 1418 1420 1422 1432 1437 1435 1433 1422 1408 1401 1399 1403 1408 1408 1409 1413 1414 1414 1415 1416 1417 1418 1420 1422 1426 1430 1432 1435 1437 1440 1443 1445 1449 1453 1456 1459 1462 1464 1467 1470 1472 1475 1478 1482 1486 1490 1493 1496 1498 1501 1503 1505 1507 1509 1511 1513 1514 1515 1516 1518 1519 1520 1521 1521 1521 1521 1521 1521
1399 1399 1398 1392 1387 1389 1388 1383 1385 1389 1392 1395 1398 1401 1403 1405 1409 1417 1425 1420 1414 1422 1427 1429 1432 1418 1401 1400 1400 1400 1404 1404 1402 1405 1409 1412 1413 1415 1416 1416 1417 1419 1422 1426 1429 1432 1436 1439 1442 1445 1448 1452 1455 1458 1462 1464 1467 1470 1473 1475 1478 1482 1486 1490 1493 1495 1497 1499 1502 1505 1506 1508 1510 1512 1514 1515 1516 1517 1518 1519 1520 1520 1519 1519 1519 1520
1396 1397 1397 1393 1389 1387 1384 1381 1383 1385 1387 1391 1393 1395 1399 1402 1406 1416 1426 1420 1414 1419 1421 1423 1427 1414 1399 1400 1401 1400 1400 1399 1399 1401 1404 1409 1411 1412 1415 1417 1419 1421 1424 1428 1429 1431 1435 1439 1443 1446 1448 1452 1455 1458 1462 1464 1467 1470 1473 1476 1479 1483 1487 1490 1492 1494 1496 1499 1501 1504 1506 1508 1510 1511 1513 1514 1515 1516 1517 1518 1518 1518 1517 1518 1518 1519
1394 1397 1397 1393 1387 1384 1382 1381 1382 1383 1386 1392 1393 1392 1396 1401 1402 1406 1412 1414 1414 1417 1419 1424 1428 1415 1400 1400 1400 1398 1398 1397 1398 1400 1401 1405 1408 1410 1413 1416 1419 1423 1427 1431 1432 1433 1436 1439 1443 1446 1449 1452 1455 1459 1463 1465 1468 1471 1474 1477 1480 1484 1487 1489 1491 1494 1496 1499 1501 1504 1506 1507 1509 1510 1512 1513 1514 1515 1516 1516 1516 1516 1516 1516 1517 1517
1393 1394 1394 1396 1395 1394 1392 1391 1390 1389 1389 1392 1393 1392 1393 1398 1401 1401 1406 1412 1415 1417 1417 1422 1427 1417 1403 1401 1399 1397 1398 1398 1400 1401 1402 1404 1407 1410 1414 1416 1419 1423 1426 1431 1434 1436 1438 1440 1443 1447 1450 1453 1456 1460 1463 1466 1469 1472 1475 1478 1481 1484 1486 1488 1491 1493 1496 1499 1501 1503 1505 1507 1508 1510 1511 1512 1512 1513 1514 1514 1514 1514 1515 1515 1516 1517
1390 1390 1390 1395 1400 1403 1404 1401 1398 1394 1392 1392 1392 1392 1393 1397 1401 1402 1407 1414 1419 1421 1418 1418 1421 1416 1407 1404 1402 1399 1399 1400 1402 1404 1406 1408 1410 1412 1416 1419 1423 1426 1428 1431 1435 1438 1440 1442 1445 1448 1451 1455 1458 1461 1465 1468 1471 1474 1477 1480 1482 1484 1486 1488 1490 1493 1495 1498 1500 1502 1504 1506 1508 1509 1510 1510 1511 1512 1512 1512 1513 1514 1514 1515 1515 1517
1387 1386 1385 1389 1394 1397 1397 1394 1389 1388 1393 1395 1393 1393 1395 1397 1399 1401 1408 1414 1414 1416 1416 1413 1415 1415 1411 1408 1405 1403 1403 1403 1404 1406 1408 1410 1413 1415 1417 1421 1424 1427 1430 1433 1437 1440 1442 1444 1447 1450 1454 1458 1461 1464 1467 1470 1473 1476 1479 1481 1483 1484 1485 1487 1490 1492 1495 1497 1499 1501 1503 1505 1507 1508 1509 1510 1510 1510 1510 1510 1512 1513 1514 1514 1516 1517
1386 1387 1387 1387 1389 1389 1389 1387 1384 1383 1390 1393 1393 1394 1397 1398 1400 1402 1408 1410 1409 1413 1417 1414 1413 1415 1412 1409 1406 1404 1404 1405 1406 1407 1409 1411 1413 1415 1417 1420 1423 1426 1428 1431 1435 1440 1443 1446 1450 1453 1457 1461 1464 1467 1470 1473 1476 1478 1480 1482 1483 1484 1485 1487 1489 1491 1494 1496 1498 1501 1503 1504 1506 1507 1508 1509 1509 1509 1509 1510 1511 1512 1513 1514 1516 1517
1385 1388 1389 1388 1388 1388 1387 1388 1386 1385 1387 1389 1391 1394 1397 1400 1401 1402 1406 1407 1405 1409 1412 1411 1411 1412 1410 1408 1406 1402 1402 1404 1406 1409 1410 1412 1414 1415 1417 1419 1421 1423 1426 1429 1433 1437 1442 1448 1452 1456 1460 1463 1466 1468 1470 1473 1476 1478 1480 1481 1482 1484 1485 1487 1489 1491 1493 1495 1498 1500 1502 1504 1505 1506 1507 1508 1508 1508 1508 1510 1511 1511 1513 1514 1516 1517
1383 1388 1388 1387 1388 1389 1389 1389 1388 1387 1387 1387 1390 1394 1397 1402 1402 1401 1403 1403 1400 1404 1408 1410 1414 1412 1408 1408 1406 1402 1401 1403 1407 1410 1412 1413 1415 1417 1418 1419 1421 1423 1425 1429 1433 1437 1441 1445 1449 1453 1456 1459 1462 1464 1466 1469 1473 1476 1479 1480 1481 1483 1485 1487 1489 1491 1493 1495 1498 1500 1501 1503 1504 1505 1506 1507 1507 1507 1508 1509 1510 1511 1513 1514 1516 1517
1383 1389 1388 1384 1389 1395 1393 1389 1387 1389 1390 1390 1395 1399 1399 1401 1403 1402 1402 1401 1400 1404 1408 1413 1416 1412 1407 1407 1407 1404 1403 1405 1408 1411 1413 1415 1417 1418 1420 1422 1424 1425 1427 1429 1432 1437 1440 1442 1445 1450 1452 1453 1455 1458 1461 1464 1468 1472 1475 1478 1480 1482 1484 1487 1489 1491 1493 1495 1497 1499 1501 1502 1503 1504 1505 1505 1506 1507 1508 1509 1510 1511 1513 1514 1515 1517
1382 1389 1388 1386 1394 1402 1398 1392 1389 1390 1392 1396 1402 1405 1402 1401 1402 1403 1402 1399 1399 1403 1409 1413 1415 1410 1407 1408 1408 1406 1405 1406 1409 1412 1414 1417 1418 1419 1421 1424 1426 1427 1429 1431 1432 1435 1439 1441 1444 1448 1451 1453 1455 1458 1460 1462 1465 1468 1471 1474 1478 1480 1483 1486 1488 1491 1493 1495 1497 1499 1500 1501 1503 1503 1504 1504 1505 1507 1508 1509 1510 1511 1513 1514 1515 1517
1384 1388 1391 1393 1400 1405 1401 1397 1393 1392 1399 1407 1408 1407 1406 1404 1401 1401 1402 1402 1401 1404 1406 1408 1408 1406 1406 1408 1408 1408 1408 1408 1410 1411 1413 1416 1418 1420 1422 1423 1425 1427 1428 1430 1431 1432 1435 1438 1441 1446 1450 1453 1456 1457 1458 1461 1463 1465 1468 1471 1475 1478 1482 1485 1488 1491 1493 1495 1497 1498 1499 1500 1501 1502 1503 1504 1505 1507 1508 1509 1510 1512 1513 1514 1516 1517
1386 1388 1393 1396 1401 1405 1404 1399 1397 1403 1413 1416 1410 1406 1406 1404 1401 1405 1411 1411 1407 1404 1402 1399 1399 1403 1407 1407 1405 1405 1406 1406 1406 1408 1410 1413 1416 1420 1422 1423 1424 1426 1427 1429 1430 1431 1433 1436 1439 1444 1447 1450 1452 1455 1457 1460 1462 1464 1466 1469 1473 1477 1481 1485 1488 1490 1492 1494 1496 1497 1498 1499 1500 1501 1502 1503 1505 1507 1508 1510 1511 1512 1513 1515 1516 1518
1388 1390 1394 1397 1402 1406 1405 1402 1408 1418 1419 1412 1408 1407 1406 1404 1403 1406 1410 1411 1408 1407 1404 1399 1397 1401 1405 1405 1402 1402 1403 1405 1407 1409 1412 1414 1416 1418 1421 1423 1424 1425 1427 1429 1430 1432 1433 1435 1438 1441 1444 1447 1451 1454 1457 1460 1462 1464 1466 1468 1471 1475 1480 1484 1487 1490 1492 1494 1494 1495 1496 1497 1499 1500 1502 1503 1505 1507 1508 1510 1511 1512 1514 1515 1517 1518
1388 1391 1396 1401 1405 1408 1408 1409 1416 1421 1415 1408 1409 1409 1405 1405 1407 1405 1407 1409 1409 1410 1408 1402 1398 1400 1403 1405 1404 1405 1406 1408 1410 1413 1415 1417 1418 1420 1421 1423 1423 1425 1426 1428 1430 1432 1434 1437 1439 1441 1444 1447 1451 1454 1456 1459 1462 1463 1466 1468 1471 1474 1479 1483 1486 1489 1491 1491 1492 1493 1495 1497 1498 1500 1501 1503 1505 1507 1508 1509 1510 1512 1514 1515 1517 1519
1387 1392 1397 1402 1408 1411 1413 1415 1415 1415 1414 1414 1413 1412 1410 1411 1412 1411 1411 1411 1410 1410 1410 1405 1403 1403 1404 1405 1406 1406 1408 1411 1414 1416 1417 1418 1420 1421 1423 1423 1424 1426 1428 1429 1431 1433 1436 1439 1441 1443 1445 1448 1452 1455 1457 1459 1461 1463 1465 1469 1471 1474 1478 1482 1484 1486 1488 1489 1490 1493 1495 1496 1498 1500 1501 1504 1506 1507 1508 1508 1510 1512 1514 1515 1517 1519
1387 1392 1397 1402 1410 1413 1413 1416 1417 1418 1420 1419 1415 1413 1411 1411 1412 1412 1413 1412 1409 1410 1410 1406 1405 1406 1406 1405 1406 1406 1408 1414 1419 1420 1418 1418 1420 1421 1423 1424 1425 1426 1428 1429 1431 1434 1437 1441 1443 1445 1447 1450 1454 1456 1457 1459 1461 1462 1463 1466 1470 1474 1477 1479 1481 1483 1485 1487 1490 1492 1495 1497 1498 1500 1501 1504 1506 1508 1508 1509 1510 1512 1514 1517 1518 1520
1391 1394 1396 1401 1409 1411 1410 1416 1421 1422 1422 1420 1416 1412 1409 1409 1410 1410 1413 1415 1412 1410 1410 1407 1406 1408 1407 1407 1406 1405 1407 1415 1419 1419 1417 1418 1420 1421 1423 1424 1425 1426 1428 1430 1431 1433 1436 1439 1442 1445 1447 1449 1452 1454 1455 1457 1460 1461 1463 1465 1468 1471 1474 1476 1479 1481 1484 1487 1490 1492 1494 1496 1498 1500 1501 1504 1506 1508 1509 1510 1511 1513 1515 1517 1519 1520
1394 1397 1399 1404 1410 1412 1413 1418 1422 1420 1420 1420 1417 1413 1410 1408 1406 1409 1418 1421 1414 1411 1411 1409 1407 1408 1408 1408 1408 1407 1409 1412 1413 1414 1416 1418 1420 1421 1423 1424 1425 1427 1429 1431 1432 1433 1435 1438 1441 1444 1445 1447 1449 1453 1455 1457 1459 1461 1465 1467 1469 1471 1473 1476 1479 1482 1485 1488 1490 1493 1495 1496 1498 1500 1502 1504 1506 1509 1510 1511 1512 1514 1515 1517 1519 1520
1400 1403 1406 1408 1411 1412 1414 1418 1421 1421 1420 1419 1416 1413 1409 1406 1406 1413 1422 1421 1415 1412 1413 1410 1409 1409 1408 1408 1410 1410 1410 1410 1409 1411 1415 1418 1419 1421 1423 1425 1427 1429 1430 1431 1433 1434 1436 1439 1441 1443 1445 1446 1449 1452 1455 1456 1458 1460 1464 1466 1469 1471 1474 1477 1480 1483 1486 1488 1491 1493 1495 1497 1499 1501 1503 1504 1507 1508 1510 1512 1514 1515 1515 1517 1518 1520
1408 1410 1410 1411 1413 1414 1416 1419 1422 1423 1422 1419 1415 1411 1408 1409 1415 1420 1421 1418 1415 1414 1413 1411 1410 1409 1408 1409 1411 1411 1411 1412 1412 1414 1417 1419 1420 1422 1424 1426 1429 1431 1432 1433 1434 1435 1437 1440 1442 1444 1446 1448 1450 1452 1454 1456 1458 1460 1462 1466 1469 1472 1475 1477 1480 1483 1486 1489 1491 1493 1495 1497 1500 1502 1503 1505 1506 1508 1510 1513 1514 1515 1516 1517 1518 1519
1417 1417 1416 1418 1418 1417 1419 1421 1422 1423 1422 1418 1415 1414 1414 1418 1422 1422 1419 1418 1417 1415 1413 1412 1411 1410 1410 1411 1411 1412 1413 1414 1414 1416 1418 1421 1422 1424 1426 1428 1429 1431 1434 1435 1436 1437 1438 1440 1443 1445 1446 1447 1449 1452 1454 1457 1460 1462 1464 1467 1470 1473 1475 1478 1480 1483 1486 1489 1491 1493 1496 1498 1500 1502 1504 1505 1507 1509 1511 1513 1514 1515 1516 1518 1519 1520
1420 1419 1419 1422 1422 1419 1420 1423 1424 1424 1423 1419 1417 1419 1421 1422 1422 1421 1419 1419 1417 1416 1415 1414 1412 1412 1412 1411 1412 1414 1414 1415 1416 1417 1418 1420 1422 1424 1427 1430 1431 1433 1435 1436 1438 1440 1440 1442 1444 1446 1447 1449 1450 1453 1456 1459 1462 1464 1466 1468 1470 1473 1476 1478 1480 1483 1486 1489 1491 1494 1497 1499 1501 1503 1504 1506 1507 1509 1511 1512 1514 1515 1516 1518 1519 1520
1421 1419 1418 1422 1425 1423 1422 1424 1425 1425 1424 1421 1420 1420 1420 1420 1420 1421 1421 1420 1419 1417 1416 1415 1414 1414 1414 1413 1414 1415 1415 1415 1417 1417 1418 1419 1421 1423 1425 1428 1431 1433 1435 1437 1439 1441 1442 1443 1444 1446 1449 1451 1453 1456 1459 1461 1463 1465 1466 1468 1471 1473 1476 1478 1480 1484 1486 1489 1492 1495 1497 1499 1501 1503 1505 1507 1508 1509 1511 1512 1514 1515 1516 1518 1519 1520
1420 1419 1418 1421 1425 1424 1424 1425 1425 1425 1424 1423 1422 1422 1421 1419 1420 1421 1421 1421 1420 1419 1418 1417 1416 1415 1415 1414 1414 1415 1416 1417 1418 1419 1420 1421 1422 1424 1426 1429 1431 1433 1434 1436 1439 1441 1442 1444 1446 1447 1449 1452 1455 1457 1460 1462 1465 1466 1467 1469 1471 1474 1476 1478 1481 1484 1487 1490 1493 1495 1497 1500 1502 1504 1506 1507 1509 1510 1511 1513 1514 1515 1516 1518 1519 1520
1419 1419 1420 1421 1424 1425 1426 1427 1426 1426 1426 1425 1423 1423 1422 1421 1421 1422 1422 1422 1421 1421 1420 1418 1417 1417 1416 1415 1415 1416 1417 1418 1419 1420 1421 1422 1424 1426 1428 1430 1433 1435 1435 1436 1439 1442 1443 1445 1447 1448 1450 1452 1455 1457 1459 1462 1465 1467 1468 1469 1472 1474 1477 1479 1482 1485 1488 1491 1493 1495 1497 1499 1501 1504 1506 1507 1509 1511 1512 1514 1515 1515 1516 1518 1519 1520
1421 1420 1421 1424 1425 1426 1428 1428 1427 1427 1427 1426 1425 1424 1424 1423 1423 1423 1422 1422 1422 1421 1420 1419 1419 1418 1417 1416 1416 1416 1417 1419 1419 1420 1421 1423 1424 1425 1428 1431 1433 1435 1437 1438 1440 1442 1444 1445 1448 1450 1452 1454 1456 1458 1460 1463 1465 1467 1468 1470 1472 1475 1477 1480 1483 1486 1488 1491 1493 1495 1497 1499 1501 1503 1505 1507 1509 1511 1512 1514 1515 1516 1517 1518 1519 1520
1422 1422 1423 1425 1427 1428 1429 1429 1428 1428 1428 1427 1427 1427 1426 1425 1425 1424 1423 1423 1422 1421 1421 1420 1419 1419 1418 1418 1418 1417 1418 1419 1420 1420 1421 1423 1424 1424 1427 1432 1435 1435 1437 1440 1442 1444 1446 1447 1448 1451 1453 1455 1458 1459 1461 1463 1465 1467 1469 1471 1473 1476 1478 1481 1484 1486 1488 1491 1493 1495 1498 1500 1502 1503 1505 1507 1509 1510 1512 1514 1515 1517 1518 1519 1521 1521
1424 1425 1425 1426 1428 1430 1430 1429 1428 1428 1430 1430 1429 1428 1428 1427 1427 1425 1425 1424 1423 1423 1423 1422 1421 1420 1420 1419 1419 1419 1419 1420 1422 1423 1423 1424 1426 1426 1426 1431 1436 1438 1438 1440 1443 1445 1448 1449 1450 1451 1453 1456 1459 1461 1462 1464 1466 1467 1470 1472 1474 1477 1479 1482 1484 1486 1489 1491 1494 1496 1498 1500 1502 1504 1505 1507 1508 1510 1511 1513 1515 1517 1518 1520 1521 1523
1425 1426 1425 1425 1427 1429 1429 1428 1428 1429 1430 1431 1430 1429 1429 1429 1428 1427 1427 1426 1426 1426 1424 1423 1422 1421 1421 1421 1421 1420 1420 1421 1422 1425 1426 1427 1428 1427 1427 1430 1436 1438 1439 1441 1443 1445 1447 1449 1450 1452 1454 1457 1459 1462 1463 1464 1466 1468 1470 1473 1475 1478 1480 1482 1484 1486 1489 1491 1494 1496 1498 1500 1502 1504 1505 1507 1508 1510 1511 1512 1514 1516 1518 1520 1522 1523